Temp
11 11 11 11 11 11 11 12 12 12 12 13 13 13 13 13 13 13 13 13 13 13 14 13 13 13 13 13 13 13 12 12 12 12 13 13 13 13 13 13 13 13
11 11 11 12 12 12 12 12 12 12 12 12 12 12 13 13 13 13 13 13 13 13 13 13 13 13 13 13 13 12 12 12 12 12 12 13 13 12 12 13 13 13
10 10 11 11 12 12 12 12 12 12 12 13 12 12 12 12 13 13 13 13 13 13 13 13 13 12 12 12 12 12 12 12 12 12 12 12 13 12 12 13 13 13
10 10 9 10 11 12 12 12 12 12 12 13 13 12 12 12 12 12 12 12 13 13 13 13 13 13 13 12 12 12 12 12 12 12 12 12 12 12 12 12 13 13
9 9 9 9 10 11 12 12 12 12 12 12 12 12 12 12 12 12 12 12 12 12 13 13 13 13 13 13 12 12 12 12 12 12 12 12 12 12 12 12 13 13
9 8 8 8 9 9 10 10 10 11 11 11 11 11 11 12 12 11 12 12 12 12 12 12 13 12 12 13 12 12 12 12 12 12 12 12 12 12 12 12 13 13
8 8 8 8 7 7 8 8 8 9 10 10 10 11 12 12 11 11 11 11 11 12 12 12 12 12 12 12 12 12 12 12 12 12 12 12 12 12 12 12 12 13
7 7 7 7 7 7 7 7 7 7 8 9 9 10 11 11 11 12 11 11 11 11 12 12 12 12 12 12 12 12 12 12 12 12 12 12 12 12 12 12 12 12
7 7 7 7 7 7 6 6 7 7 7 8 9 9 10 10 11 11 11 11 11 11 11 11 11 12 12 12 12 12 12 12 12 12 12 12 12 12 12 12 12 12
7 7 7 6 6 6 6 6 6 6 6 7 8 9 9 9 9 10 11 11 10 11 11 11 11 12 12 11 12 12 12 12 12 12 12 12 12 12 12 12 12 12
6 7 7 6 6 6 6 6 6 6 6 7 8 8 9 9 9 9 10 11 10 10 11 11 11 11 11 11 11 12 12 12 12 12 12 12 12 12 12 12 12 12
6 6 6 6 6 5 6 6 5 5 7 7 7 8 8 8 8 8 9 10 10 10 10 10 11 11 11 11 11 11 11 11 12 12 12 12 12 12 12 12 12 12
5 5 5 5 5 5 5 5 5 6 7 7 7 7 8 8 8 8 8 8 9 9 9 9 10 10 10 11 11 11 11 11 11 11 12 12 12 12 12 12 12 12
5 5 5 5 5 5 5 5 5 5 6 6 6 6 7 7 8 8 8 7 8 8 8 9 9 10 10 10 11 11 11 11 11 11 11 12 12 12 12 12 12 12
4 4 5 4 4 4 4 4 4 4 5 5 5 5 5 6 7 7 7 7 8 8 8 8 9 9 10 10 10 10 11 11 11 11 11 11 12 12 12 12 12 12
4 4 4 4 4 4 4 4 4 4 4 4 4 4 4 5 6 6 6 7 7 7 7 8 8 8 9 10 9 9 10 11 11 11 11 11 11 12 12 12 12 12
4 4 4 3 3 3 3 3 3 3 3 3 3 3 3 4 4 5 6 6 6 6 6 7 7 7 8 9 9 9 9 10 11 11 11 11 11 11 12 12 12 12
4 3 3 3 3 3 3 3 3 2 2 2 2 2 2 2 3 3 4 5 5 6 6 6 6 6 7 8 8 9 9 10 10 10 11 11 11 11 11 11 12 12
4 3 3 3 3 3 3 3 2 2 2 2 2 2 2 2 2 2 2 3 4 5 5 5 5 6 6 7 8 8 9 9 10 10 11 11 11 11 11 11 11 11
4 3 3 3 3 3 3 3 2 2 2 1 1 1 1 1 1 1 1 2 3 3 4 4 4 5 6 7 7 8 9 9 9 10 10 11 11 11 11 11 11 11
4 4 3 3 3 3 3 3 2 2 2 1 1 1 1 1 1 1 1 1 1 2 3 3 4 5 6 7 7 8 9 9 9 10 10 10 11 11 11 11 11 11
4 4 4 4 4 3 3 3 2 2 2 2 2 1 1 1 1 1 1 1 1 1 1 2 2 4 5 6 7 7 8 9 9 9 10 10 10 10 10 11 11 11
3 3 4 3 3 3 3 3 3 2 2 2 2 2 1 1 0 1 0 0 0 0 0 0 1 2 4 6 6 7 7 8 9 9 10 10 10 10 10 11 11 11
3 3 3 3 3 3 3 3 3 2 2 2 2 2 1 1 0 0 0 0 0 0 -0 -0 0 1 2 4 5 6 6 7 7 8 9 9 9 10 10 10 10 11
3 3 3 3 3 3 3 3 3 2 2 2 1 1 1 1 0 0 0 -0 0 0 0 0 0 0 1 2 4 5 5 6 6 6 7 8 8 8 9 9 10 10
3 3 3 3 3 3 3 3 2 2 2 2 1 1 1 1 0 0 0 -0 -0 0 0 -0 -0 0 0 1 2 3 4 5 5 5 5 6 7 8 8 9 9 10
Height
1519 1519 1518 1517 1517 1517 1517 1516 1516 1515 1515 1514 1512 1512 1511 1510 1510 1510 1510 1509 1508 1508 1506 1506 1505 1505 1504 1504 1503 1503 1504 1504 1505 1506 1507 1508 1508 1510 1511 1513 1514 1515
1519 1518 1517 1516 1516 1516 1516 1515 1515 1514 1513 1512 1511 1510 1510 1509 1509 1509 1508 1507 1507 1506 1505 1504 1504 1503 1503 1503 1503 1502 1502 1502 1502 1503 1504 1505 1506 1508 1509 1511 1512 1513
1520 1518 1516 1516 1515 1514 1514 1514 1513 1513 1512 1511 1510 1509 1508 1508 1508 1507 1507 1506 1505 1505 1504 1503 1502 1502 1502 1503 1503 1502 1501 1500 1500 1501 1502 1502 1504 1505 1506 1508 1509 1510
1520 1518 1517 1515 1514 1514 1513 1512 1512 1511 1510 1510 1509 1508 1507 1506 1506 1506 1505 1505 1504 1503 1502 1501 1500 1501 1501 1502 1502 1501 1500 1499 1499 1500 1500 1500 1502 1502 1504 1505 1507 1508
1520 1519 1517 1516 1514 1513 1512 1511 1510 1509 1509 1509 1508 1507 1506 1505 1504 1504 1504 1503 1502 1501 1500 1499 1499 1499 1499 1499 1500 1500 1498 1498 1498 1498 1497 1498 1499 1500 1501 1502 1503 1505
1520 1519 1518 1516 1515 1514 1512 1511 1510 1509 1508 1507 1506 1505 1504 1503 1503 1502 1502 1502 1501 1500 1499 1498 1498 1498 1497 1497 1497 1497 1496 1496 1497 1497 1496 1495 1496 1497 1498 1499 1500 1501
1520 1519 1518 1517 1516 1515 1513 1511 1510 1508 1507 1506 1505 1504 1503 1502 1501 1501 1500 1500 1499 1499 1498 1496 1496 1496 1495 1495 1495 1495 1494 1494 1494 1494 1494 1494 1494 1494 1495 1496 1497 1498
1520 1519 1518 1517 1516 1515 1513 1512 1510 1508 1506 1505 1504 1503 1501 1500 1499 1499 1499 1498 1497 1497 1496 1495 1495 1495 1494 1494 1493 1493 1492 1491 1490 1490 1490 1491 1492 1492 1493 1494 1495 1496
1520 1519 1518 1517 1516 1515 1514 1511 1510 1508 1506 1504 1503 1501 1500 1499 1498 1497 1496 1496 1496 1496 1494 1494 1494 1494 1493 1492 1491 1490 1489 1488 1487 1486 1486 1487 1489 1490 1491 1492 1493 1494
1520 1519 1518 1517 1516 1515 1513 1511 1509 1507 1505 1503 1501 1500 1499 1498 1496 1495 1494 1494 1494 1494 1493 1493 1492 1491 1490 1489 1488 1487 1487 1486 1484 1483 1482 1483 1485 1486 1488 1489 1490 1491
1521 1520 1519 1518 1516 1515 1513 1511 1509 1507 1505 1503 1501 1499 1498 1496 1495 1493 1492 1492 1492 1492 1491 1491 1489 1488 1487 1487 1486 1485 1484 1483 1482 1481 1480 1480 1481 1482 1484 1486 1487 1487
1522 1521 1520 1518 1517 1515 1513 1511 1509 1507 1504 1502 1500 1498 1497 1495 1494 1492 1490 1489 1489 1489 1489 1488 1487 1486 1486 1484 1484 1483 1482 1481 1480 1479 1477 1477 1477 1478 1480 1482 1483 1484
1523 1522 1520 1519 1517 1515 1513 1511 1509 1507 1504 1502 1500 1498 1496 1494 1492 1491 1489 1488 1487 1487 1486 1485 1485 1485 1483 1480 1479 1479 1479 1478 1478 1477 1475 1475 1475 1475 1476 1477 1479 1481
1525 1523 1521 1520 1518 1515 1513 1511 1509 1507 1504 1502 1500 1498 1496 1494 1492 1490 1488 1487 1486 1485 1484 1483 1483 1482 1479 1477 1476 1476 1475 1474 1473 1473 1473 1472 1472 1472 1473 1474 1475 1477
1525 1524 1522 1520 1518 1516 1514 1511 1509 1507 1505 1503 1501 1498 1496 1494 1492 1490 1487 1485 1484 1483 1481 1481 1480 1479 1476 1475 1473 1472 1472 1471 1470 1470 1469 1469 1470 1470 1471 1472 1473 1474
1526 1524 1522 1520 1518 1517 1515 1512 1510 1508 1505 1503 1501 1499 1497 1495 1492 1490 1487 1485 1482 1480 1479 1478 1477 1476 1474 1473 1472 1469 1468 1468 1468 1468 1467 1467 1467 1467 1468 1469 1470 1471
1526 1525 1523 1521 1519 1518 1516 1514 1511 1509 1507 1505 1502 1500 1498 1496 1493 1491 1488 1485 1483 1480 1478 1476 1475 1473 1471 1470 1469 1468 1466 1465 1464 1465 1464 1464 1464 1465 1465 1466 1467 1468
1528 1526 1524 1522 1521 1519 1517 1515 1513 1510 1508 1506 1504 1502 1500 1497 1495 1492 1489 1486 1483 1481 1478 1475 1473 1471 1468 1467 1466 1465 1464 1462 1462 1462 1461 1461 1461 1462 1463 1463 1464 1465
1529 1527 1525 1524 1522 1520 1519 1516 1514 1511 1509 1507 1505 1503 1501 1498 1496 1494 1491 1488 1484 1481 1478 1475 1473 1470 1467 1465 1463 1461 1461 1459 1458 1458 1457 1457 1458 1459 1461 1461 1461 1462
1530 1528 1527 1525 1523 1522 1520 1517 1515 1513 1511 1509 1506 1505 1502 1500 1497 1495 1492 1489 1486 1482 1479 1476 1472 1469 1466 1463 1460 1458 1457 1456 1455 1454 1454 1454 1454 1456 1457 1457 1457 1459
1532 1530 1528 1527 1525 1523 1521 1518 1517 1514 1512 1510 1508 1506 1504 1502 1499 1497 1494 1491 1487 1484 1480 1476 1472 1469 1465 1461 1458 1456 1455 1453 1452 1451 1451 1451 1451 1452 1453 1453 1454 1455
1533 1531 1530 1528 1526 1524 1522 1520 1518 1516 1514 1512 1510 1508 1506 1503 1501 1498 1495 1492 1489 1485 1481 1477 1473 1469 1465 1461 1457 1454 1452 1450 1449 1448 1448 1448 1448 1449 1449 1449 1450 1452
1534 1533 1531 1530 1528 1526 1524 1522 1520 1518 1516 1514 1512 1509 1507 1504 1502 1499 1497 1494 1490 1486 1482 1478 1474 1470 1465 1461 1457 1453 1450 1448 1446 1445 1445 1445 1445 1445 1445 1446 1447 1448
1535 1534 1533 1531 1529 1527 1526 1524 1522 1519 1517 1516 1514 1511 1509 1506 1503 1501 1498 1495 1491 1488 1484 1480 1477 1472 1467 1463 1458 1454 1450 1447 1445 1444 1443 1442 1441 1441 1442 1443 1444 1445
1536 1535 1534 1532 1531 1529 1527 1526 1523 1521 1519 1517 1515 1514 1511 1508 1505 1502 1499 1496 1493 1490 1486 1483 1479 1474 1470 1465 1460 1456 1452 1448 1446 1444 1442 1441 1440 1439 1440 1441 1442 1442
1537 1536 1535 1533 1532 1530 1529 1527 1525 1523 1521 1518 1516 1515 1513 1510 1507 1504 1501 1498 1495 1492 1488 1484 1481 1477 1473 1468 1464 1459 1455 1451 1448 1445 1444 1443 1441 1439 1438 1439 1439 1439
Wind_Speed
9 9 11 12 12 11 11 11 11 12 14 17 19 19 19 19 19 20 20 19 20 21 22 22 21 20 21 21 20 21 25 26 26 26 27 27 28 29 30 29 28 29
15 12 12 12 12 12 12 13 13 12 12 15 17 17 18 19 18 18 20 20 20 21 22 23 22 21 22 22 21 22 24 27 27 26 26 26 27 30 31 30 29 29
20 17 15 14 13 14 15 16 17 15 14 14 15 16 17 17 17 17 18 19 21 22 22 23 23 22 23 23 23 24 26 27 27 26 27 27 27 29 31 32 31 30
20 19 18 18 17 17 17 17 18 18 18 18 17 16 16 16 16 17 18 19 20 22 22 23 22 22 23 23 23 26 27 27 27 27 28 29 28 28 30 31 30 30
15 16 18 20 20 20 18 18 19 19 19 19 19 19 18 17 16 16 18 19 20 22 22 23 23 21 22 23 23 24 26 25 25 25 27 29 28 28 30 30 30 29
13 14 17 19 21 23 21 20 20 20 19 19 18 19 19 19 18 16 17 19 21 22 22 24 24 21 21 23 22 21 23 24 23 24 27 29 28 28 30 30 30 29
17 16 16 18 21 23 23 22 22 22 21 20 19 19 19 20 20 19 19 19 21 22 22 24 25 24 23 23 22 21 21 23 23 25 27 28 28 28 29 29 29 29
19 19 18 19 20 21 22 23 22 22 23 22 21 21 21 20 20 21 21 20 20 22 23 24 25 26 24 23 23 23 22 23 24 26 27 28 28 28 29 29 29 28
20 20 20 21 21 22 23 23 23 23 24 24 23 22 22 22 21 20 19 19 19 20 22 22 23 25 24 24 25 24 24 24 24 25 26 27 28 28 27 28 28 28
21 19 20 22 23 23 24 24 25 25 25 25 25 23 22 22 22 22 21 18 18 19 20 20 21 22 24 24 24 24 25 25 25 25 26 25 27 29 28 26 27 28
22 21 21 23 24 25 25 24 25 26 26 27 27 25 24 22 22 24 24 21 18 18 20 20 20 23 24 24 24 24 25 25 24 25 26 26 27 29 29 29 30 30
23 23 23 23 24 25 25 25 25 26 27 27 27 27 27 25 24 24 26 25 21 18 19 19 20 22 23 23 23 24 25 26 25 24 25 25 27 29 28 29 31 32
23 23 24 24 24 24 25 25 25 26 27 28 27 27 28 28 27 26 25 26 24 20 19 19 19 20 21 21 21 21 21 23 25 26 25 24 26 27 26 26 28 30
22 22 23 24 25 25 25 26 26 26 27 27 27 28 29 29 28 28 27 26 25 22 20 20 20 21 21 22 22 22 21 20 21 23 25 24 24 24 23 24 26 27
21 22 22 24 25 26 27 27 26 27 27 27 28 29 30 30 29 28 28 27 25 22 20 19 20 23 24 24 24 24 23 22 20 21 23 25 26 26 25 25 26 26
21 22 23 24 25 26 27 27 27 27 28 28 28 29 31 32 31 31 31 30 28 25 22 19 19 23 25 26 27 27 25 25 24 23 24 25 27 27 26 26 26 25
22 23 23 24 25 25 26 27 27 27 28 28 29 30 31 32 33 34 35 35 32 30 26 21 20 22 25 27 28 29 28 27 26 25 25 26 27 26 26 24 22 23
22 23 23 24 25 26 26 26 26 27 28 28 29 30 31 32 32 33 36 38 37 35 31 27 24 23 24 26 27 28 28 27 26 26 27 28 27 25 25 25 23 23
23 23 24 25 25 26 26 26 27 28 29 30 29 28 30 32 32 32 34 38 39 38 36 33 30 27 25 25 26 27 27 27 25 25 26 28 28 25 24 25 25 25
23 23 24 25 26 27 27 27 28 29 31 32 30 28 29 31 32 32 33 35 38 39 38 37 36 33 29 25 25 26 27 27 26 25 23 25 28 27 25 25 25 24
23 24 25 26 26 27 28 29 29 29 31 33 32 31 31 31 31 31 31 33 36 38 38 39 39 37 34 29 25 24 25 27 28 27 25 24 27 27 26 26 25 23
23 24 25 26 26 27 28 30 30 29 29 31 32 33 33 32 30 31 31 32 35 37 38 39 40 39 37 36 31 25 22 23 25 26 26 26 27 26 25 26 25 24
22 23 24 25 26 27 28 29 30 30 29 29 30 32 34 34 33 31 31 31 33 35 36 37 39 40 38 38 36 30 22 19 19 20 22 24 26 26 26 26 24 24
22 22 23 24 25 26 27 28 30 30 29 28 27 29 32 34 34 32 31 32 31 31 32 34 37 39 39 38 38 35 28 20 16 15 16 18 20 21 23 24 24 25
21 22 23 24 25 26 26 27 28 30 30 28 26 27 30 32 33 32 32 31 30 30 31 34 36 38 39 39 39 38 34 28 21 16 13 11 11 12 15 18 22 26
20 21 22 23 25 25 25 26 27 28 30 30 27 26 27 29 31 31 30 30 31 31 32 34 36 38 38 38 38 37 36 33 28 23 18 13 8 7 9 13 19 23
Wind_Direction
321 314 305 302 300 288 285 293 300 310 315 312 311 310 308 302 297 298 298 297 299 298 295 289 285 282 277 270 264 247 235 237 239 237 237 239 240 242 242 239 235 236
344 339 329 317 311 300 288 283 289 302 309 308 310 309 309 309 305 304 301 297 297 298 298 294 288 284 279 271 263 251 241 239 240 239 238 241 242 242 240 237 234 235
345 346 345 331 322 312 299 290 290 293 292 295 303 306 308 310 310 309 305 300 298 298 299 296 291 289 288 283 269 256 249 246 245 245 244 244 243 239 237 235 233 232
350 346 346 335 329 320 312 308 302 297 293 292 297 303 307 308 308 309 306 304 302 300 298 295 294 295 294 291 278 261 254 250 248 249 248 248 244 237 233 233 232 231
355 346 342 337 339 334 328 324 318 313 309 303 299 298 301 305 308 310 308 305 304 302 298 296 298 299 297 296 288 272 263 258 253 251 250 251 248 238 232 232 231 232
358 354 347 347 350 344 341 340 334 330 327 323 313 303 298 297 299 305 309 309 306 303 302 300 300 297 292 294 292 279 273 272 266 258 253 253 251 241 234 234 234 235
0 359 354 357 356 348 347 351 347 342 338 335 328 317 309 300 293 292 297 306 311 308 306 306 304 299 292 290 291 284 278 278 273 264 257 253 250 244 238 236 237 238
3 2 0 359 356 353 353 354 351 347 341 338 335 330 325 317 307 296 288 293 305 309 307 306 306 305 299 294 292 288 283 281 276 269 263 255 248 244 240 238 238 239
5 3 2 358 356 358 355 352 352 351 347 344 340 336 332 329 324 314 298 288 294 306 308 305 305 305 302 296 293 290 286 282 276 273 270 260 250 244 241 238 237 238
3 0 1 359 358 359 356 354 356 354 351 348 345 340 336 332 329 323 313 299 290 299 307 306 303 303 300 296 294 292 287 281 276 275 275 268 258 251 247 242 240 241
2 0 2 360 360 359 356 357 359 355 352 352 349 345 341 336 331 325 321 314 298 292 300 303 300 298 299 299 298 294 289 283 279 276 276 273 264 256 251 246 243 244
3 3 3 1 2 360 356 359 0 355 355 356 353 350 348 343 338 331 326 323 315 299 293 296 299 300 301 301 302 300 294 289 286 281 277 273 264 257 254 249 245 244
5 5 4 2 2 360 358 1 1 358 359 1 358 355 354 351 346 340 333 329 326 317 299 291 298 307 303 295 294 297 295 292 291 288 283 275 264 259 256 252 248 246
5 7 6 3 3 2 2 3 3 2 3 4 4 2 0 358 354 348 342 335 331 326 312 295 293 299 297 292 293 294 291 289 289 287 284 276 264 258 254 253 254 252
7 10 7 4 6 5 2 2 4 5 5 7 8 7 5 6 4 358 352 345 338 332 321 305 293 290 290 292 297 298 293 287 284 282 279 273 263 256 253 255 256 252
10 11 7 6 8 6 2 2 3 3 5 7 9 8 7 9 10 10 6 0 353 345 333 319 304 293 287 285 289 295 295 287 281 279 277 272 265 261 258 257 256 252
12 11 9 9 8 6 5 4 3 2 3 5 7 8 7 7 10 13 14 12 7 0 350 337 323 305 292 286 284 288 292 289 282 277 273 268 264 262 261 257 254 252
13 11 11 10 8 7 6 5 5 4 3 4 7 6 3 4 7 9 11 13 13 10 5 356 343 325 308 298 291 286 285 286 284 276 270 267 263 259 258 259 258 251
14 12 12 11 9 8 6 5 6 7 6 7 7 4 360 1 5 4 5 9 12 12 11 6 358 346 328 313 303 293 286 283 282 276 268 264 262 259 257 260 258 248
16 14 14 12 11 9 8 7 6 5 6 7 8 6 1 359 2 2 0 2 7 10 11 10 6 359 349 331 314 303 294 286 282 279 271 263 260 259 259 263 261 249
17 15 15 14 12 10 9 9 8 5 4 5 7 6 3 0 2 3 359 357 1 6 7 8 8 5 2 353 334 314 302 294 287 282 276 268 262 259 256 258 260 252
17 16 15 15 14 12 9 9 10 7 4 5 5 4 3 3 5 6 2 357 359 3 5 7 7 5 5 4 355 336 314 302 295 289 282 275 270 264 256 253 255 254
17 17 16 15 14 14 11 9 8 8 7 7 6 4 4 5 6 7 7 3 1 3 5 7 8 5 4 6 5 357 339 317 307 301 292 282 277 271 260 254 252 250
16 18 19 16 15 16 14 10 8 8 9 11 10 6 3 4 6 7 9 9 7 6 7 9 10 8 6 7 9 7 0 349 337 325 308 293 287 282 270 259 252 246
17 19 20 17 16 16 15 13 10 8 8 11 14 11 4 4 7 7 7 10 13 13 14 15 14 12 11 10 11 12 10 6 1 353 337 316 296 285 273 260 253 249
16 17 19 19 19 18 16 14 13 11 8 8 12 13 8 6 8 8 7 12 17 16 16 17 16 16 16 14 13 14 15 13 10 6 358 345 317 274 253 240 239 239